Durango, CO

8:02 PM MDT on March 22, 2017 (GMT -0600)
Durango-La Plata County

Weather History for KDRO - April, 2014

Change the Weather History Date:

Tuesday, April 29, 2014

  Actual Average Record
Temperature  
Mean Temperature 37 °F 48 °F  
Max Temperature 53 °F 65 °F 78 °F (1981)
Min Temperature 21 °F 31 °F 18 °F (1970)
Degree Days  
Heating Degree Days 28 17  
Month to date heating degree days 590 591  
Since 1 July heating degree days 6337 6620  
Cooling Degree Days 0 0  
Month to date cooling degree days 0 0  
Year to date cooling degree days 0 0  
Moisture  
Dew Point 9 °F    
Average Humidity 38    
Maximum Humidity 62    
Minimum Humidity 14    
Precipitation  
Precipitation 0.00 in 0.02 in 0.14 in (2004)
Month to date precipitation 0.19 1.07  
Year to date precipitation 1.72 4.60  
Sea Level Pressure  
Sea Level Pressure 30.15 in    
Wind  
Wind Speed 7 mph (NNW)    
Max Wind Speed 18 mph    
Max Gust Speed 24 mph    
Visibility 10 miles    
Events      
T = Trace of Precipitation, MM = Missing Value Source: NWS Daily Summary

Daily Weather History Graph

Daily Weather History Graph

Search for Another Location

Airport or City:

Trip Planner

Search our weather history database for the weather conditions in past years. The results will help you decide how hot, cold, wet, or windy it might be!

Date:

Astronomy

Apr. 29, 2014 Rise Set
Actual Time 6:18 AM MDT 7:58 PM MDT
Civil Twilight 5:50 AM MDT 8:26 PM MDT
Nautical Twilight 5:17 AM MDT 9:00 PM MDT
Astronomical Twilight 4:41 AM MDT 9:35 PM MDT
Moon 6:38 AM MDT (4/29) 8:41 PM MDT (4/29)
Length of Visible Light 14h 35m
Length of Day
13h 39m
New Moon, 0% of the Moon is Illuminated
Apr 29
New Moon
May 6
First Quarter
May 14
Full
May 21
Last Quarter
May 28
New

Hourly Weather History & Observations

Time (MDT) Temp. Windchill Dew Point Humidity Pressure Visibility Wind Dir Wind Speed Gust Speed Precip Events Conditions
12:53 AM 30.9 °F 22.8 °F 12.0 °F 46% 30.12 in 10.0 mi NNW 9.2 mph - N/A   Clear
1:53 AM 30.9 °F 21.2 °F 8.1 °F 38% 30.13 in 10.0 mi NNW 12.7 mph - N/A   Clear
2:53 AM 30.0 °F 21.1 °F 9.0 °F 41% 30.12 in 10.0 mi NNW 10.4 mph - N/A   Clear
3:53 AM 30.0 °F 20.5 °F 10.0 °F 43% 30.12 in 10.0 mi NW 11.5 mph - N/A   Clear
4:53 AM 28.9 °F 25.2 °F 10.0 °F 45% 30.14 in 10.0 mi WNW 3.5 mph - N/A   Clear
5:53 AM 26.1 °F 20.5 °F 9.0 °F 49% 30.15 in 10.0 mi West 4.6 mph - N/A   Clear
7:53 AM 30.0 °F - 12.0 °F 47% 30.20 in 2.5 mi Calm Calm - N/A   Haze
8:04 AM 30.9 °F - 10.9 °F 43% 30.18 in 10.0 mi Calm Calm - N/A   Clear
8:53 AM 37.0 °F - 8.1 °F 30% 30.19 in 10.0 mi Calm Calm - N/A   Clear
9:53 AM 42.1 °F - 6.1 °F 23% 30.17 in 10.0 mi Calm Calm - N/A   Clear
10:53 AM 45.0 °F 40.1 °F 7.0 °F 21% 30.16 in 10.0 mi South 9.2 mph - N/A   Clear
11:53 AM 46.9 °F - 3.9 °F 17% 30.15 in 10.0 mi South 10.4 mph - N/A   Clear
12:53 PM 48.0 °F - 1.9 °F 15% 30.13 in 10.0 mi SSE 9.2 mph - N/A   Clear
1:53 PM 50.0 °F - 3.0 °F 15% 30.10 in 10.0 mi North - - N/A   Partly Cloudy
4:53 PM 46.0 °F 41.0 °F 12.9 °F 26% 30.13 in 10.0 mi ESE 10.4 mph 24.2 mph N/A   Overcast
5:53 PM 48.9 °F - 9.0 °F 20% 30.14 in 10.0 mi NNE 6.9 mph - N/A   Mostly Cloudy
6:53 PM 48.0 °F - 10.0 °F 22% 30.16 in 10.0 mi North 8.1 mph - N/A   Partly Cloudy
7:53 PM 44.1 °F 37.4 °F 10.0 °F 25% 30.16 in 10.0 mi North 13.8 mph - N/A   Partly Cloudy
8:53 PM 39.9 °F 32.9 °F 10.9 °F 31% 30.17 in 10.0 mi North 11.5 mph - N/A   Clear
9:53 PM 37.9 °F 30.9 °F 10.9 °F 33% 30.19 in 10.0 mi North 10.4 mph - N/A   Clear
10:53 PM 36.0 °F 32.1 °F 10.9 °F 36% 30.19 in 10.0 mi North 4.6 mph - N/A   Clear
11:53 PM 35.1 °F 32.2 °F 10.9 °F 37% 30.20 in 10.0 mi NNW 3.5 mph - N/A   Clear